Location: Mahannah Oil Field
(37.4664°N, 96.6003°W)
Time: 02:06:56
(UTC+00:00)

A-11 Canister half - Pass Details

Date: 29 January 2021
Orbit: 1524 x 1684 km, 47.3° (Epoch: 25 February)

Event Time Altitude Azimuth Distance (km) Brightness Sun altitude
Rises 20:32:24 0° 256° (WSW) 4,667 12.1 28.8°
Reaches altitude 10° 20:35:30 10° 260° (W) 3,688 11.7 28.5°
Maximum altitude 20:44:39 60° 339° (NNW) 1,730 9.5 27.5°
Drops below altitude 10° 20:54:03 10° 59° (ENE) 3,771 10.6 26.4°
Sets 20:57:16 0° 63° (ENE) 4,777 11.1 26.0°
